User: anonymous   Login
Location: Fort Wayne
(41.1310°N, 85.1290°W)
Time: 21:00:55
(UTC-04:00)
Language:

Cosmos 2082 - Orbit

View from above orbital plane
View from above orbital plane
View from above satellite
View from above satellite

Ground track
Ground track

The orbit data is extracted from the following two-line orbital elements,

1 20624U 90046A   16205.50620774 -.00000297  00000-0 -13090-3 0  9994
2 20624  71.0390 182.4972 0014662 178.1821 181.9358 14.14202061350729
Epoch (UTC): 23 July 2016 12:08:56
Eccentricity: 0.0014662
inclination: 71.0390°
perigee height: 834 km
apogee height: 855 km
right ascension of ascending node: 182.4972°
argument of perigee: 178.1821°
revolutions per day: 14.14202061
mean anomaly at epoch: 181.9358°
orbit number at epoch: 35072

The dashed part of the orbit path shows where the satellite is in the earth's shadow,  

DLR